FW6531 Weather Reports


time (UTC)temp
F
wind
direction
speed
knots
gust
knots
rain 1hr
in
rain 24hr
in
rain mn
in
humidity
%
barometer
mb
20260505012015 50 186 4.3 8.7 0.00 0.00 0.00 78 1006.2
20260505011512 49 165 4.3 8.7 0.00 0.00 0.00 79 1006.0
20260505011011 49 188 4.3 8.7 0.00 0.00 0.00 81 1006.0
20260505010510 48 180 3.5 9.6 0.00 0.00 0.00 81 1006.0
20260505010011 48 244 1.7 7.8 0.00 0.00 0.00 81 1005.9
20260505005509 48 253 1.7 7.0 0.00 0.00 0.00 81 1005.9
20260505005010 48 200 1.7 7.0 0.00 0.00 0.00 80 1005.7
20260505004510 48 196 1.7 3.5 0.00 0.00 0.00 80 1005.8
20260505004014 48 199 0.0 1.7 0.00 0.00 0.00 80 1005.8
20260505003513 48 199 0.0 2.6 0.00 0.00 0.00 80 1005.7
20260505003010 48 198 0.9 2.6 0.00 0.00 0.00 80 1005.6
20260505002513 48 199 0.0 1.7 0.00 0.00 0.00 80 1005.5
20260505002007 49 199 0.0 1.7 0.00 0.00 0.00 80 1005.2
20260505001507 49 199 0.0 5.2 0.00 0.00 0.00 79 1005.3
20260505001009 49 199 0.9 5.2 0.00 0.00 0.00 79 1005.2
20260505000505 49 167 0.9 4.3 0.00 0.00 0.00 79 1005.3
20260505000011 49 171 0.9 4.3 0.00 0.00 0.00 79 1005.2
20260504235504 49 171 0.9 3.5 0.00 0.00 0.00 79 1005.2
20260504235004 49 173 1.7 4.3 0.00 0.00 0.00 78 1005.2
20260504234504 50 157 2.6 7.0 0.00 0.00 0.00 78 1005.4
20260504234002 50 139 2.6 7.0 0.00 0.00 0.00 77 1005.2
20260504233503 50 138 2.6 4.3 0.00 0.00 0.00 77 1005.2
20260504233001 51 134 2.6 4.3 0.00 0.00 0.00 76 1005.1
20260504232601 51 128 2.6 4.3 0.00 0.00 0.00 75 1005.0
20260504232059 51 140 2.6 6.1 0.00 0.00 0.00 74 1004.9
20260504231605 52 134 3.5 6.1 0.00 0.00 0.00 73 1004.8
20260504231059 52 128 2.6 4.3 0.00 0.00 0.00 73 1004.7
20260504230602 52 126 2.6 6.1 0.00 0.00 0.00 72 1004.6
20260504230100 53 135 3.5 6.1 0.00 0.00 0.00 71 1004.6
20260504225558 53 142 2.6 4.3 0.00 0.00 0.00 70 1004.6
20260504225102 54 135 2.6 4.3 0.00 0.00 0.00 69 1004.6
20260504224600 54 135 2.6 4.3 0.00 0.00 0.00 67 1004.6
20260504224102 55 135 1.7 4.3 0.00 0.00 0.00 66 1004.5
20260504223557 55 136 1.7 4.3 0.00 0.00 0.00 66 1004.4
20260504223159 55 131 3.5 4.3 0.00 0.00 0.00 67 1004.4
20260504222559 55 117 1.7 4.3 0.00 0.00 0.00 66 1004.4
20260504222057 56 136 1.7 4.3 0.00 0.00 0.00 65 1004.3
20260504221605 56 135 1.7 7.0 0.00 0.00 0.00 65 1004.4
20260504221057 56 130 2.6 7.0 0.00 0.00 0.00 64 1004.3
20260504220556 56 175 1.7 6.1 0.00 0.00 0.00 64 1004.4
20260504220056 57 141 1.7 7.8 0.00 0.00 0.00 62 1004.4
20260504215556 58 147 2.6 7.8 0.00 0.00 0.00 60 1004.4
20260504215055 59 158 1.7 7.0 0.00 0.00 0.00 58 1004.5
20260504214555 60 153 1.7 7.0 0.00 0.00 0.00 57 1004.5
20260504214054 61 122 2.6 7.0 0.00 0.00 0.00 53 1004.5
20260504213555 63 107 3.5 6.1 0.00 0.00 0.00 51 1004.4
20260504213055 63 142 2.6 6.1 0.00 0.00 0.00 47 1004.4
20260504212554 63 141 1.7 6.1 0.00 0.00 0.00 47 1004.4
20260504212055 63 126 1.7 7.0 0.00 0.00 0.00 47 1004.4
20260504211554 63 101 0.9 5.2 0.00 0.00 0.00 50 1004.3
20260504211054 63 111 0.0 3.5 0.00 0.00 0.00 48 1004.2
20260504210554 63 103 0.9 4.3 0.00 0.00 0.00 48 1004.3
20260504210108 63 134 1.7 7.0 0.00 0.00 0.00 49 1004.3
20260504205553 64 107 4.3 8.7 0.00 0.00 0.00 47 1004.4
20260504205052 65 121 2.6 8.7 0.00 0.00 0.00 46 1004.4
20260504204601 66 113 6.1 8.7 0.00 0.00 0.00 44 1004.3
20260504204053 67 111 4.3 8.7 0.00 0.00 0.00 43 1004.3
20260504203553 68 91 1.7 11.3 0.00 0.00 0.00 38 1004.2
20260504203051 68 313 3.5 11.3 0.00 0.00 0.00 39 1004.2
20260504202552 68 271 3.5 10.4 0.00 0.00 0.00 38 1004.2
20260504202053 68 267 4.3 10.4 0.00 0.00 0.00 38 1004.2
20260504201552 67 272 5.2 11.3 0.00 0.00 0.00 38 1004.2
20260504201050 67 315 3.5 11.3 0.00 0.00 0.00 37 1004.2
20260504200549 67 244 3.5 10.4 0.00 0.00 0.00 38 1004.4
20260504200050 68 252 3.5 9.6 0.00 0.00 0.00 38 1004.4
20260504195548 68 263 4.3 11.3 0.00 0.00 0.00 38 1004.2
20260504195047 68 273 4.3 12.2 0.00 0.00 0.00 39 1004.3
20260504194602 67 258 2.6 7.8 0.00 0.00 0.00 40 1004.2
20260504194045 67 332 2.6 5.2 0.00 0.00 0.00 39 1004.3
20260504193544 66 272 1.7 5.2 0.00 0.00 0.00 41 1004.3
20260504193042 66 316 2.6 5.2 0.00 0.00 0.00 40 1004.3
20260504192541 66 290 0.9 7.8 0.00 0.00 0.00 42 1004.4
20260504192041 65 294 4.3 7.8 0.00 0.00 0.00 43 1004.5
20260504191546 65 259 1.7 5.2 0.00 0.00 0.00 41 1004.6
20260504191039 64 314 1.7 5.2 0.00 0.00 0.00 42 1004.7
20260504190538 64 331 1.7 7.8 0.00 0.00 0.00 44 1004.7
20260504190045 64 321 1.7 7.8 0.00 0.00 0.00 42 1004.8
20260504185536 63 267 2.6 7.8 0.00 0.00 0.00 42 1004.8
20260504185036 63 342 0.9 6.1 0.00 0.00 0.00 43 1004.8
20260504184540 63 264 2.6 6.1 0.00 0.00 0.00 41 1004.9
20260504184036 64 338 2.6 8.7 0.00 0.00 0.00 41 1004.8
20260504183535 64 288 2.6 8.7 0.00 0.00 0.00 42 1004.8
20260504183035 64 306 1.7 8.7 0.00 0.00 0.00 40 1004.7
20260504182534 64 294 2.6 8.7 0.00 0.00 0.00 41 1004.7
20260504182035 64 263 2.6 7.8 0.00 0.00 0.00 40 1004.7
20260504181542 64 267 3.5 7.0 0.00 0.00 0.00 40 1004.8
20260504181033 63 278 2.6 12.2 0.00 0.00 0.00 40 1004.7
20260504180531 63 22 4.3 11.3 0.00 0.00 0.00 40 1004.7
20260504180045 62 260 3.5 11.3 0.00 0.00 0.00 44 1004.7
20260504175529 61 271 2.6 8.7 0.00 0.00 0.00 45 1004.6
20260504175031 60 270 1.7 8.7 0.00 0.00 0.00 52 1004.6
20260504174529 60 246 2.6 7.0 0.00 0.00 0.00 53 1004.5
20260504174028 60 265 1.7 3.5 0.00 0.00 0.00 51 1004.7
20260504173527 60 169 1.7 6.1 0.00 0.00 0.00 55 1004.6
20260504173028 61 209 0.9 10.4 0.00 0.00 0.00 55 1004.6
20260504172526 61 185 3.5 12.2 0.00 0.00 0.00 53 1004.5
20260504172027 61 180 3.5 9.6 0.00 0.00 0.00 56 1004.6
20260504171528 61 134 2.6 8.7 0.00 0.00 0.00 53 1004.5
20260504171027 61 189 3.5 12.2 0.00 0.00 0.00 55 1004.5
20260504170526 60 154 4.3 12.2 0.00 0.00 0.00 52 1004.4
20260504151009 62 167 2.6 9.6 0.00 0.00 0.00 52 1005.7
20260504150508 61 174 3.5 8.7 0.00 0.00 0.00 53 1005.7
20260504141054 56 236 4.3 11.3 0.00 0.00 0.00 56 1006.8
20260504140553 55 213 4.3 11.3 0.00 0.00 0.00 56 1006.8
20260504130545 52 243 4.3 10.4 0.00 0.00 0.00 59 1007.4
20260504110525 44 245 0.0 3.5 0.00 0.00 0.00 67 1007.8
20260504100508 43 252 1.7 3.5 0.00 0.00 0.00 65 1007.6
20260504081549 42 269 2.6 5.2 0.00 0.00 0.00 67 1007.5
20260504081048 42 250 2.6 5.2 0.00 0.00 0.00 67 1007.5
20260504080546 42 229 1.7 4.3 0.00 0.00 0.00 67 1007.6
20260504050525 40 263 1.7 7.0 0.00 0.00 0.00 70 1007.1
20260504050024 40 278 0.9 4.3 0.00 0.00 0.00 71 1007.1
20260504045522 41 206 0.9 4.3 0.00 0.00 0.00 71 1007.0
20260504045021 41 193 1.7 3.5 0.00 0.00 0.00 70 1007.2
20260504044519 41 219 1.7 4.3 0.00 0.00 0.00 70 1007.1
20260504044020 41 215 1.7 5.2 0.00 0.00 0.00 70 1007.1
20260504043519 41 204 2.6 5.2 0.00 0.00 0.00 71 1007.1
20260504043016 40 196 2.6 5.2 0.00 0.00 0.00 71 1007.1
20260504042514 40 239 2.6 5.2 0.00 0.00 0.00 72 1007.1
20260504042013 40 242 1.7 4.3 0.00 0.00 0.00 73 1007.0
20260504041513 39 214 1.7 4.3 0.00 0.00 0.00 73 1007.1
20260504041012 39 215 1.7 3.5 0.00 0.00 0.00 73 1007.2
20260504040511 40 213 1.7 5.2 0.00 0.00 0.00 72 1007.2
20260504040010 40 204 1.7 5.2 0.00 0.00 0.00 71 1007.1
20260504035510 40 252 1.7 3.5 0.00 0.00 0.00 70 1007.0
20260504035008 41 253 0.9 2.6 0.00 0.00 0.00 70 1007.0
20260504034508 41 253 1.7 3.5 0.00 0.00 0.00 69 1007.0
20260504034006 41 254 0.9 3.5 0.00 0.00 0.00 69 1007.0
20260504033507 42 254 1.7 3.5 0.00 0.00 0.00 68 1007.0
20260504033004 42 254 1.7 2.6 0.00 0.00 0.00 67 1006.9
20260504032506 42 255 1.7 3.5 0.00 0.00 0.00 67 1006.9
20260504032004 42 256 1.7 3.5 0.00 0.00 0.00 66 1006.9
20260504031503 43 216 1.7 4.3 0.00 0.00 0.00 65 1006.9
20260504031002 43 211 1.7 4.3 0.00 0.00 0.00 65 1007.0
20260504030502 43 207 0.9 5.2 0.00 0.00 0.00 64 1007.0
20260504030003 44 202 1.7 5.2 0.00 0.00 0.00 63 1006.9
20260504025502 44 264 1.7 6.1 0.00 0.00 0.00 62 1006.9
20260504025002 44 267 1.7 5.2 0.00 0.00 0.00 60 1006.9
20260504024502 45 267 0.9 5.2 0.00 0.00 0.00 60 1006.9
20260504024001 45 267 1.7 5.2 0.00 0.00 0.00 59 1006.9
20260504023501 45 265 1.7 5.2 0.00 0.00 0.00 59 1006.9
20260504023001 45 267 1.7 5.2 0.00 0.00 0.00 59 1007.0
20260504022601 45 269 0.9 5.2 0.00 0.00 0.00 59 1007.0
20260504022000 45 279 1.7 7.0 0.00 0.00 0.00 58 1007.0
20260504021612 45 290 1.7 7.0 0.00 0.00 0.00 58 1007.1
20260504021103 45 263 2.6 7.0 0.00 0.00 0.00 58 1007.0
20260504020601 45 265 3.5 7.0 0.00 0.00 0.00 58 1007.0
20260504020107 45 264 2.6 7.0 0.00 0.01 0.00 58 1006.9
20260504015600 45 265 1.7 6.1 0.00 0.01 0.00 58 1006.8
20260504015100 45 265 2.6 6.1 0.00 0.01 0.00 58 1006.9
20260504014600 45 235 2.6 7.0 0.00 0.01 0.00 57 1006.9
20260504014059 46 264 2.6 6.1 0.00 0.01 0.00 56 1006.9
20260504013559 46 275 1.7 6.1 0.00 0.01 0.00 55 1006.9
20260504013110 46 269 2.6 6.1 0.00 0.01 0.00 55 1006.8
20260504012559 46 259 1.7 6.1 0.00 0.01 0.00 55 1006.8